TimeMDT,TemperatureF,Dew PointF,Humidity,Sea Level PressureIn,VisibilityMPH,Wind Direction,Wind SpeedMPH,Gust SpeedMPH,PrecipitationIn,Events,Conditions,WindDirDegrees,DateUTC
12:53 AM,57.9,57.0,97,29.94,4.0,SSE,8.1,-,N/A,,Overcast,150,2013-07-29 06:53:00
1:53 AM,57.9,57.0,97,29.94,5.0,SSE,6.9,-,N/A,,Overcast,160,2013-07-29 07:53:00
2:29 AM,57.2,57.2,100,30.03,9.0,Calm,Calm,-,N/A,,Overcast,0,2013-07-29 08:29:00
2:34 AM,57.2,57.2,100,30.03,10.0,Calm,Calm,-,N/A,,Overcast,0,2013-07-29 08:34:00
2:53 AM,57.9,55.9,93,29.93,10.0,SSE,5.8,-,N/A,,Overcast,150,2013-07-29 08:53:00
3:53 AM,57.9,57.0,97,29.91,10.0,South,10.4,-,N/A,,Overcast,190,2013-07-29 09:53:00
4:53 AM,57.9,57.0,97,29.83,10.0,SSE,16.1,-,0.00,,Overcast,150,2013-07-29 10:53:00
5:53 AM,57.9,57.0,97,29.86,10.0,South,10.4,-,N/A,,Overcast,190,2013-07-29 11:53:00
6:53 AM,59.0,57.0,93,29.90,10.0,South,5.8,-,N/A,,Overcast,190,2013-07-29 12:53:00
7:53 AM,59.0,57.9,96,29.94,9.0,Calm,Calm,-,N/A,,Overcast,0,2013-07-29 13:53:00
8:53 AM,60.1,57.9,93,29.95,4.0,Calm,Calm,-,N/A,,Overcast,0,2013-07-29 14:53:00
9:30 AM,60.8,57.2,88,30.02,2.0,Calm,Calm,-,N/A,,Overcast,0,2013-07-29 15:30:00
9:53 AM,60.1,59.0,96,29.95,2.5,ESE,5.8,-,0.00,Rain,Light Rain,120,2013-07-29 15:53:00
10:07 AM,60.8,59.0,94,30.03,4.0,ESE,4.6,-,0.00,,Overcast,110,2013-07-29 16:07:00
10:19 AM,60.8,59.0,94,30.03,9.0,ESE,3.5,-,0.00,,Overcast,120,2013-07-29 16:19:00
10:53 AM,62.1,59.0,90,29.95,10.0,Calm,Calm,-,0.00,,Overcast,0,2013-07-29 16:53:00
11:53 AM,64.9,60.1,84,29.95,10.0,Calm,Calm,-,N/A,,Overcast,0,2013-07-29 17:53:00
12:26 PM,69.8,60.8,73,30.04,10.0,Variable,4.6,-,N/A,,Overcast,0,2013-07-29 18:26:00
12:53 PM,71.1,59.0,66,29.94,10.0,NNW,5.8,-,N/A,,Overcast,340,2013-07-29 18:53:00
1:53 PM,73.0,59.0,61,29.94,10.0,Variable,6.9,-,N/A,,Mostly Cloudy,0,2013-07-29 19:53:00
2:01 PM,73.4,59.0,61,30.04,10.0,WNW,5.8,-,N/A,,Partly Cloudy,290,2013-07-29 20:01:00
2:53 PM,75.9,59.0,56,29.93,10.0,Variable,4.6,-,N/A,,Clear,0,2013-07-29 20:53:00
3:53 PM,75.9,57.0,52,29.93,10.0,Variable,3.5,-,N/A,,Clear,0,2013-07-29 21:53:00
4:53 PM,79.0,57.0,47,29.92,10.0,Calm,Calm,-,N/A,,Clear,0,2013-07-29 22:53:00
5:53 PM,77.0,55.9,48,29.93,10.0,Calm,Calm,-,N/A,,Clear,0,2013-07-29 23:53:00
6:53 PM,77.0,55.9,48,29.94,10.0,NW,3.5,-,N/A,,Clear,320,2013-07-30 00:53:00
7:53 PM,72.0,57.9,61,29.96,10.0,West,5.8,-,N/A,,Clear,260,2013-07-30 01:53:00
8:53 PM,66.9,57.9,73,29.99,10.0,WSW,4.6,-,N/A,,Clear,250,2013-07-30 02:53:00
9:53 PM,66.0,59.0,78,30.01,10.0,SSW,3.5,-,N/A,,Clear,200,2013-07-30 03:53:00
10:53 PM,64.9,59.0,81,30.02,10.0,NW,6.9,-,N/A,,Clear,310,2013-07-30 04:53:00
11:53 PM,62.1,57.9,86,30.04,10.0,WSW,4.6,-,N/A,,Clear,250,2013-07-30 05:53:00